Voltar ao catálogo

SL-8 DEB

AtivoLEO
NORAD 14812·DEBRIS·🇷🇺 Russia

Lançado Apr 12, 1983 de Plesetsk Cosmodrome

Loading…

Próximas Passagens (próximas 24 horas)

TLE

AtualizadoSource: Space-Track

Época: Sep 14, 2026, 10:12 UTC

1 14812U 83031C   26257.42565405  .00000844  00000-0  22212-3 0  9992
2 14812  74.0517 256.2595 0015687 347.2352 164.0390 14.50543400265045

Acompanhe SL-8 DEB em tempo real com AllMySat

Download on the App Store